Time,TemperatureF,DewpointF,PressureIn,WindDirection,WindDirectionDegrees,WindSpeedMPH,WindSpeedGustMPH,Humidity,HourlyPrecipIn,Conditions,Clouds,dailyrainin,SoftwareType,DateUTC
2013-03-16 00:00:00,28.8,26.6,29.69,East,90,6.3,7.2,91,0.00,,,0.00,WUHU216HW,2013-03-16 05:00:00,
2013-03-16 00:05:00,28.6,26.4,29.69,ESE,113,4.7,6.3,91,0.00,,,0.00,WUHU216HW,2013-03-16 05:05:00,
2013-03-16 00:10:00,28.4,26.2,29.69,East,90,7.6,8.3,91,0.00,,,0.00,WUHU216HW,2013-03-16 05:10:00,
2013-03-16 00:15:00,28.4,26.2,29.69,East,90,4.3,8.3,91,0.00,,,0.00,WUHU216HW,2013-03-16 05:15:00,
2013-03-16 00:20:00,28.4,26.2,29.69,East,90,4.3,6.3,91,0.00,,,0.00,WUHU216HW,2013-03-16 05:20:00,
2013-03-16 00:25:00,28.4,26.2,29.69,East,90,2.7,4.7,91,0.00,,,0.00,WUHU216HW,2013-03-16 05:25:00,
2013-03-16 00:30:00,28.4,26.2,29.70,East,90,3.1,4.7,91,0.00,,,0.00,WUHU216HW,2013-03-16 05:30:00,
2013-03-16 00:35:00,28.4,26.2,29.69,ESE,113,5.4,5.4,91,0.00,,,0.00,WUHU216HW,2013-03-16 05:35:00,
2013-03-16 00:40:00,28.3,26.0,29.69,East,90,3.6,7.8,91,0.00,,,0.00,WUHU216HW,2013-03-16 05:40:00,
2013-03-16 00:45:00,28.3,25.7,29.69,East,90,3.6,7.8,90,0.00,,,0.00,WUHU216HW,2013-03-16 05:45:00,
2013-03-16 00:50:00,28.1,25.6,29.69,East,90,7.6,7.6,90,0.00,,,0.00,WUHU216HW,2013-03-16 05:50:00,
2013-03-16 00:55:00,27.9,25.4,29.70,East,90,4.7,7.6,90,0.00,,,0.00,WUHU216HW,2013-03-16 05:55:00,
2013-03-16 01:00:00,27.9,25.1,29.70,East,90,4.3,7.2,89,0.00,,,0.00,WUHU216HW,2013-03-16 06:00:00,
2013-03-16 01:05:00,27.7,25.2,29.69,East,90,1.1,4.7,90,0.00,,,0.00,WUHU216HW,2013-03-16 06:05:00,
2013-03-16 01:10:00,27.7,24.7,29.69,ESE,113,4.5,8.7,88,0.00,,,0.00,WUHU216HW,2013-03-16 06:10:00,
2013-03-16 01:15:00,27.5,24.5,29.68,East,90,6.0,9.2,88,0.00,,,0.00,WUHU216HW,2013-03-16 06:15:00,
2013-03-16 01:20:00,27.4,24.3,29.68,East,90,5.4,9.2,88,0.00,,,0.00,WUHU216HW,2013-03-16 06:20:00,
2013-03-16 01:25:00,27.2,23.8,29.68,ESE,113,7.4,8.1,87,0.00,,,0.00,WUHU216HW,2013-03-16 06:25:00,
2013-03-16 01:30:00,27.0,23.6,29.68,ESE,113,5.4,8.1,87,0.00,,,0.00,WUHU216HW,2013-03-16 06:30:00,
2013-03-16 01:35:00,27.0,24.0,29.68,East,90,4.3,6.7,88,0.00,,,0.00,WUHU216HW,2013-03-16 06:35:00,
2013-03-16 01:40:00,26.8,23.8,29.69,SSW,203,0.4,6.3,88,0.00,,,0.00,WUHU216HW,2013-03-16 06:40:00,
2013-03-16 01:45:00,26.8,23.8,29.69,East,90,2.0,3.6,88,0.00,,,0.00,WUHU216HW,2013-03-16 06:45:00,
2013-03-16 01:50:00,26.8,23.8,29.69,ESE,113,4.3,4.3,88,0.00,,,0.00,WUHU216HW,2013-03-16 06:50:00,
2013-03-16 01:55:00,26.8,23.8,29.69,ESE,113,2.7,4.3,88,0.00,,,0.00,WUHU216HW,2013-03-16 06:55:00,
2013-03-16 02:00:00,26.6,23.9,29.70,SSE,158,0.7,3.4,89,0.00,,,0.00,WUHU216HW,2013-03-16 07:00:00,
2013-03-16 02:05:00,26.6,23.9,29.70,East,90,2.2,6.0,89,0.00,,,0.00,WUHU216HW,2013-03-16 07:05:00,
2013-03-16 02:10:00,26.6,23.9,29.69,East,90,0.4,6.0,89,0.00,,,0.00,WUHU216HW,2013-03-16 07:10:00,
2013-03-16 02:15:00,26.8,24.0,29.69,East,90,4.0,4.0,89,0.00,,,0.00,WUHU216HW,2013-03-16 07:15:00,
2013-03-16 02:20:00,26.6,23.9,29.70,East,90,3.8,6.3,89,0.00,,,0.00,WUHU216HW,2013-03-16 07:20:00,
2013-03-16 02:25:00,26.5,23.7,29.70,East,90,4.7,6.3,89,0.00,,,0.00,WUHU216HW,2013-03-16 07:25:00,
2013-03-16 02:30:00,26.3,23.5,29.69,East,90,3.4,6.9,89,0.00,,,0.00,WUHU216HW,2013-03-16 07:30:00,
2013-03-16 02:35:00,26.3,23.5,29.70,ENE,68,1.1,6.9,89,0.00,,,0.00,WUHU216HW,2013-03-16 07:35:00,
2013-03-16 02:40:00,26.1,23.3,29.69,ESE,113,5.4,6.9,89,0.00,,,0.00,WUHU216HW,2013-03-16 07:40:00,
2013-03-16 02:45:00,26.1,23.3,29.69,East,90,4.3,7.8,89,0.00,,,0.00,WUHU216HW,2013-03-16 07:45:00,
2013-03-16 02:50:00,25.9,23.1,29.69,SE,135,2.5,7.8,89,0.00,,,0.00,WUHU216HW,2013-03-16 07:50:00,
2013-03-16 02:55:00,25.9,23.1,29.69,ESE,113,2.7,6.5,89,0.00,,,0.00,WUHU216HW,2013-03-16 07:55:00,
2013-03-16 03:00:00,25.9,23.1,29.69,East,90,3.8,5.4,89,0.00,,,0.00,WUHU216HW,2013-03-16 08:00:00,
2013-03-16 03:05:00,25.7,23.0,29.69,ESE,113,2.2,4.7,89,0.00,,,0.00,WUHU216HW,2013-03-16 08:05:00,
2013-03-16 03:10:00,25.7,23.0,29.70,WNW,293,1.1,4.7,89,0.00,,,0.00,WUHU216HW,2013-03-16 08:10:00,
2013-03-16 03:15:00,25.9,23.1,29.70,South,180,0.4,2.9,89,0.00,,,0.00,WUHU216HW,2013-03-16 08:15:00,
2013-03-16 03:20:00,25.9,23.1,29.70,NNW,338,0.4,1.6,89,0.00,,,0.00,WUHU216HW,2013-03-16 08:20:00,
2013-03-16 03:25:00,25.9,23.1,29.71,ENE,68,0.4,1.6,89,0.00,,,0.00,WUHU216HW,2013-03-16 08:25:00,
2013-03-16 03:30:00,25.7,23.0,29.70,NE,45,0.7,2.2,89,0.00,,,0.00,WUHU216HW,2013-03-16 08:30:00,
2013-03-16 03:35:00,25.6,22.8,29.71,North,0,0.7,2.2,89,0.00,,,0.00,WUHU216HW,2013-03-16 08:35:00,
2013-03-16 03:40:00,25.6,22.8,29.71,ESE,113,1.3,1.3,89,0.00,,,0.00,WUHU216HW,2013-03-16 08:40:00,
2013-03-16 03:45:00,25.6,22.8,29.71,NNE,23,0.9,1.3,89,0.00,,,0.00,WUHU216HW,2013-03-16 08:45:00,
2013-03-16 03:50:00,25.4,22.6,29.71,SW,225,0.0,2.5,89,0.00,,,0.00,WUHU216HW,2013-03-16 08:50:00,
2013-03-16 03:55:00,25.2,22.4,29.70,NNW,338,0.7,2.5,89,0.00,,,0.00,WUHU216HW,2013-03-16 08:55:00,
2013-03-16 04:00:00,25.2,22.4,29.71,North,0,0.4,1.3,89,0.00,,,0.00,WUHU216HW,2013-03-16 09:00:00,
2013-03-16 04:05:00,25.0,22.2,29.70,WNW,293,1.3,1.6,89,0.00,,,0.00,WUHU216HW,2013-03-16 09:05:00,
2013-03-16 04:10:00,24.8,21.8,29.71,SW,225,1.1,1.6,88,0.00,,,0.00,WUHU216HW,2013-03-16 09:10:00,
2013-03-16 04:15:00,24.7,21.6,29.70,North,0,0.7,1.3,88,0.00,,,0.00,WUHU216HW,2013-03-16 09:15:00,
2013-03-16 04:20:00,24.3,21.2,29.71,North,0,0.7,1.1,88,0.00,,,0.00,WUHU216HW,2013-03-16 09:20:00,
2013-03-16 04:25:00,24.1,21.1,29.71,North,0,0.7,1.6,88,0.00,,,0.00,WUHU216HW,2013-03-16 09:25:00,
2013-03-16 04:30:00,23.9,20.9,29.71,North,0,0.4,1.6,88,0.00,,,0.00,WUHU216HW,2013-03-16 09:30:00,
2013-03-16 04:35:00,23.8,20.7,29.71,North,0,0.7,0.9,88,0.00,,,0.00,WUHU216HW,2013-03-16 09:35:00,
2013-03-16 04:40:00,23.8,20.7,29.71,North,0,0.4,0.9,88,0.00,,,0.00,WUHU216HW,2013-03-16 09:40:00,
2013-03-16 04:45:00,23.6,20.5,29.72,North,0,0.4,1.1,88,0.00,,,0.00,WUHU216HW,2013-03-16 09:45:00,
2013-03-16 04:50:00,23.4,20.3,29.71,North,0,0.9,1.1,88,0.00,,,0.00,WUHU216HW,2013-03-16 09:50:00,
2013-03-16 04:55:00,23.2,20.2,29.72,North,0,1.1,1.3,88,0.00,,,0.00,WUHU216HW,2013-03-16 09:55:00,
2013-03-16 05:00:00,22.9,19.5,29.72,North,0,0.4,2.7,87,0.00,,,0.00,WUHU216HW,2013-03-16 10:00:00,
2013-03-16 05:05:00,22.7,19.4,29.72,NNE,23,0.4,2.7,87,0.00,,,0.00,WUHU216HW,2013-03-16 10:05:00,
2013-03-16 05:10:00,22.5,19.2,29.73,NNE,23,0.4,1.6,87,0.00,,,0.00,WUHU216HW,2013-03-16 10:10:00,
2013-03-16 05:15:00,22.3,19.0,29.73,NNW,338,0.7,1.1,87,0.00,,,0.00,WUHU216HW,2013-03-16 10:15:00,
2013-03-16 05:20:00,22.3,19.0,29.73,North,0,0.4,1.1,87,0.00,,,0.00,WUHU216HW,2013-03-16 10:20:00,
2013-03-16 05:25:00,22.3,19.0,29.74,West,270,0.7,0.7,87,0.00,,,0.00,WUHU216HW,2013-03-16 10:25:00,
2013-03-16 05:30:00,22.1,18.8,29.74,NE,45,0.4,0.9,87,0.00,,,0.00,WUHU216HW,2013-03-16 10:30:00,
2013-03-16 05:35:00,22.0,18.6,29.74,North,0,0.9,0.9,87,0.00,,,0.00,WUHU216HW,2013-03-16 10:35:00,
2013-03-16 05:40:00,21.6,18.3,29.75,SSE,158,1.1,1.6,87,0.00,,,0.00,WUHU216HW,2013-03-16 10:40:00,
2013-03-16 05:45:00,21.2,17.9,29.75,North,0,0.9,1.6,87,0.00,,,0.00,WUHU216HW,2013-03-16 10:45:00,
2013-03-16 05:50:00,21.1,17.7,29.75,NNE,23,0.7,1.8,87,0.00,,,0.00,WUHU216HW,2013-03-16 10:50:00,
2013-03-16 05:55:00,21.1,17.7,29.76,SSW,203,0.2,1.8,87,0.00,,,0.00,WUHU216HW,2013-03-16 10:55:00,
2013-03-16 06:00:00,20.9,17.6,29.76,NW,315,0.4,1.8,87,0.00,,,0.00,WUHU216HW,2013-03-16 11:00:00,
2013-03-16 06:05:00,20.9,17.6,29.76,North,0,0.2,1.6,87,0.00,,,0.00,WUHU216HW,2013-03-16 11:05:00,
2013-03-16 06:10:00,20.9,17.6,29.77,SE,135,1.6,1.6,87,0.00,,,0.00,WUHU216HW,2013-03-16 11:10:00,
2013-03-16 06:15:00,20.7,17.4,29.77,ENE,68,0.7,1.6,87,0.00,,,0.00,WUHU216HW,2013-03-16 11:15:00,
2013-03-16 06:20:00,20.7,17.4,29.77,North,0,1.3,1.3,87,0.00,,,0.00,WUHU216HW,2013-03-16 11:20:00,
2013-03-16 06:25:00,20.7,17.4,29.77,North,0,0.4,1.3,87,0.00,,,0.00,WUHU216HW,2013-03-16 11:25:00,
2013-03-16 06:30:00,20.5,17.2,29.78,North,0,0.4,0.4,87,0.00,,,0.00,WUHU216HW,2013-03-16 11:30:00,
2013-03-16 06:35:00,20.5,17.2,29.78,ESE,113,0.4,0.7,87,0.00,,,0.00,WUHU216HW,2013-03-16 11:35:00,
2013-03-16 06:40:00,20.5,17.2,29.78,NNW,338,0.9,1.1,87,0.00,,,0.00,WUHU216HW,2013-03-16 11:40:00,
2013-03-16 06:45:00,20.3,17.0,29.78,North,0,0.2,1.1,87,0.00,,,0.00,WUHU216HW,2013-03-16 11:45:00,
2013-03-16 06:50:00,20.2,16.8,29.78,North,0,0.4,0.4,87,0.00,,,0.00,WUHU216HW,2013-03-16 11:50:00,
2013-03-16 06:55:00,20.0,16.7,29.79,NNE,23,0.0,1.1,87,0.00,,,0.00,WUHU216HW,2013-03-16 11:55:00,
2013-03-16 07:01:00,19.8,16.5,29.79,NNE,23,0.4,1.1,87,0.00,,,0.00,WUHU216HW,2013-03-16 12:01:00,
2013-03-16 07:06:00,19.8,16.5,29.79,North,0,0.4,1.1,87,0.00,,,0.00,WUHU216HW,2013-03-16 12:06:00,
2013-03-16 07:11:00,19.6,16.3,29.79,NW,315,0.2,1.1,87,0.00,,,0.00,WUHU216HW,2013-03-16 12:11:00,
2013-03-16 07:16:00,19.4,15.8,29.80,NE,45,0.7,1.3,86,0.00,,,0.00,WUHU216HW,2013-03-16 12:16:00,
2013-03-16 07:21:00,19.4,15.8,29.80,North,0,0.7,1.3,86,0.00,,,0.00,WUHU216HW,2013-03-16 12:21:00,
2013-03-16 07:26:00,19.4,15.8,29.81,SW,225,0.0,0.9,86,0.00,,,0.00,WUHU216HW,2013-03-16 12:26:00,
2013-03-16 07:31:00,19.4,15.8,29.81,NNW,338,0.4,0.9,86,0.00,,,0.00,WUHU216HW,2013-03-16 12:31:00,
2013-03-16 07:36:00,19.4,15.8,29.81,NE,45,1.1,1.3,86,0.00,,,0.00,WUHU216HW,2013-03-16 12:36:00,
2013-03-16 07:41:00,19.4,15.8,29.81,North,0,0.2,1.3,86,0.00,,,0.00,WUHU216HW,2013-03-16 12:41:00,
2013-03-16 07:46:00,19.4,15.8,29.82,North,0,0.2,0.4,86,0.00,,,0.00,WUHU216HW,2013-03-16 12:46:00,
2013-03-16 07:52:00,19.6,16.0,29.82,North,0,0.4,0.4,86,0.00,,,0.00,WUHU216HW,2013-03-16 12:52:00,
2013-03-16 07:57:00,19.4,15.6,29.82,NNW,338,0.9,1.1,85,0.00,,,0.00,WUHU216HW,2013-03-16 12:57:00,
2013-03-16 08:02:00,19.4,15.6,29.82,North,0,0.4,1.1,85,0.00,,,0.00,WUHU216HW,2013-03-16 13:02:00,
2013-03-16 08:07:00,19.6,15.8,29.82,North,0,0.4,0.4,85,0.00,,,0.00,WUHU216HW,2013-03-16 13:07:00,
2013-03-16 08:12:00,19.8,15.9,29.83,North,0,0.0,0.4,85,0.00,,,0.00,WUHU216HW,2013-03-16 13:12:00,
2013-03-16 08:18:00,19.8,15.9,29.83,NE,45,0.2,0.4,85,0.00,,,0.00,WUHU216HW,2013-03-16 13:18:00,
2013-03-16 08:23:00,19.8,15.9,29.83,North,0,0.4,0.4,85,0.00,,,0.00,WUHU216HW,2013-03-16 13:23:00,
2013-03-16 08:28:00,20.0,16.1,29.84,North,0,0.4,0.7,85,0.00,,,0.00,WUHU216HW,2013-03-16 13:28:00,
2013-03-16 08:33:00,20.0,16.1,29.84,North,0,0.4,0.7,85,0.00,,,0.00,WUHU216HW,2013-03-16 13:33:00,
2013-03-16 08:38:00,20.2,16.3,29.84,NNE,23,0.0,0.4,85,0.00,,,0.00,WUHU216HW,2013-03-16 13:38:00,
2013-03-16 08:43:00,20.3,16.5,29.84,NNW,338,0.0,0.4,85,0.00,,,0.00,WUHU216HW,2013-03-16 13:43:00,
2013-03-16 08:48:00,20.5,16.7,29.84,NNE,23,0.4,0.7,85,0.00,,,0.00,WUHU216HW,2013-03-16 13:48:00,
2013-03-16 08:53:00,20.7,16.8,29.85,North,0,0.9,0.9,85,0.00,,,0.00,WUHU216HW,2013-03-16 13:53:00,
2013-03-16 08:58:00,21.1,17.2,29.84,North,0,0.0,0.9,85,0.00,,,0.00,WUHU216HW,2013-03-16 13:58:00,
2013-03-16 09:03:00,21.2,17.4,29.85,North,0,0.0,0.7,85,0.00,,,0.00,WUHU216HW,2013-03-16 14:03:00,
2013-03-16 09:08:00,21.4,17.6,29.85,North,0,0.2,0.7,85,0.00,,,0.00,WUHU216HW,2013-03-16 14:08:00,
2013-03-16 09:13:00,21.6,17.7,29.85,North,0,0.2,0.2,85,0.00,,,0.00,WUHU216HW,2013-03-16 14:13:00,
2013-03-16 09:18:00,22.0,18.1,29.85,North,0,0.4,0.4,85,0.00,,,0.00,WUHU216HW,2013-03-16 14:18:00,
2013-03-16 09:23:00,22.0,17.8,29.86,North,0,0.2,0.7,84,0.00,,,0.00,WUHU216HW,2013-03-16 14:23:00,
2013-03-16 09:28:00,22.0,17.8,29.86,North,0,0.4,0.7,84,0.00,,,0.00,WUHU216HW,2013-03-16 14:28:00,
2013-03-16 09:33:00,22.0,17.8,29.86,NNW,338,0.7,0.7,84,0.00,,,0.00,WUHU216HW,2013-03-16 14:33:00,
2013-03-16 09:38:00,22.0,17.6,29.86,North,0,0.4,0.7,83,0.00,,,0.00,WUHU216HW,2013-03-16 14:38:00,
2013-03-16 09:43:00,22.1,17.7,29.86,NNE,23,0.2,0.7,83,0.00,,,0.00,WUHU216HW,2013-03-16 14:43:00,
2013-03-16 09:48:00,22.3,17.6,29.86,ENE,68,0.4,0.9,82,0.00,,,0.00,WUHU216HW,2013-03-16 14:48:00,
2013-03-16 09:53:00,22.7,18.0,29.86,North,0,1.1,1.1,82,0.00,,,0.00,WUHU216HW,2013-03-16 14:53:00,
2013-03-16 09:58:00,23.2,18.5,29.86,North,0,0.4,1.1,82,0.00,,,0.00,WUHU216HW,2013-03-16 14:58:00,
2013-03-16 10:03:00,23.4,18.7,29.87,North,0,0.4,0.4,82,0.00,,,0.00,WUHU216HW,2013-03-16 15:03:00,
2013-03-16 10:08:00,23.6,18.6,29.87,North,0,0.4,0.9,81,0.00,,,0.00,WUHU216HW,2013-03-16 15:08:00,
2013-03-16 10:13:00,24.1,19.2,29.87,NNE,23,0.2,0.9,81,0.00,,,0.00,WUHU216HW,2013-03-16 15:13:00,
2013-03-16 10:18:00,24.5,19.3,29.87,North,0,0.7,0.7,80,0.00,,,0.00,WUHU216HW,2013-03-16 15:18:00,
2013-03-16 10:23:00,25.0,20.1,29.87,North,0,0.2,0.7,81,0.00,,,0.00,WUHU216HW,2013-03-16 15:23:00,
2013-03-16 10:28:00,25.2,19.6,29.88,North,0,0.4,0.7,79,0.00,,,0.00,WUHU216HW,2013-03-16 15:28:00,
2013-03-16 10:33:00,25.4,19.8,29.88,North,0,0.0,0.7,79,0.00,,,0.00,WUHU216HW,2013-03-16 15:33:00,
2013-03-16 10:38:00,26.1,20.4,29.88,North,0,0.4,0.7,79,0.00,,,0.00,WUHU216HW,2013-03-16 15:38:00,
2013-03-16 10:43:00,26.6,21.0,29.88,North,0,0.0,0.4,79,0.00,,,0.00,WUHU216HW,2013-03-16 15:43:00,
2013-03-16 10:48:00,27.7,21.4,29.88,North,0,0.4,0.4,77,0.00,,,0.00,WUHU216HW,2013-03-16 15:48:00,
2013-03-16 10:53:00,28.8,22.5,29.89,North,0,0.0,0.4,77,0.00,,,0.00,WUHU216HW,2013-03-16 15:53:00,
2013-03-16 10:58:00,29.7,23.1,29.89,North,0,0.9,0.9,76,0.00,,,0.00,WUHU216HW,2013-03-16 15:58:00,
2013-03-16 11:03:00,29.9,23.2,29.89,North,0,0.4,0.9,76,0.00,,,0.00,WUHU216HW,2013-03-16 16:03:00,
2013-03-16 11:08:00,30.1,23.0,29.89,North,0,0.2,0.7,75,0.00,,,0.00,WUHU216HW,2013-03-16 16:08:00,
2013-03-16 11:13:00,30.4,23.4,29.89,North,0,0.4,2.0,75,0.00,,,0.00,WUHU216HW,2013-03-16 16:13:00,
2013-03-16 11:18:00,31.0,23.9,29.90,North,0,0.0,2.0,75,0.00,,,0.00,WUHU216HW,2013-03-16 16:18:00,
2013-03-16 11:23:00,31.3,23.9,29.89,North,0,0.0,1.1,74,0.00,,,0.00,WUHU216HW,2013-03-16 16:23:00,
2013-03-16 11:28:00,31.9,24.2,29.89,North,0,0.0,1.1,73,0.00,,,0.00,WUHU216HW,2013-03-16 16:28:00,
2013-03-16 11:33:00,32.0,24.0,29.89,North,0,0.0,0.7,72,0.00,,,0.00,WUHU216HW,2013-03-16 16:33:00,
2013-03-16 11:38:00,32.6,24.2,29.89,North,0,0.2,0.4,71,0.00,,,0.00,WUHU216HW,2013-03-16 16:38:00,
2013-03-16 11:43:00,32.4,23.8,29.89,North,0,0.0,1.1,70,0.00,,,0.00,WUHU216HW,2013-03-16 16:43:00,
2013-03-16 11:48:00,32.4,23.8,29.90,North,0,0.4,1.1,70,0.00,,,0.00,WUHU216HW,2013-03-16 16:48:00,
2013-03-16 11:53:00,32.8,24.0,29.90,North,0,0.2,0.4,70,0.00,,,0.00,WUHU216HW,2013-03-16 16:53:00,
2013-03-16 11:58:00,33.3,24.6,29.90,NNE,23,0.4,0.4,70,0.00,,,0.00,WUHU216HW,2013-03-16 16:58:00,
2013-03-16 12:03:00,33.8,24.7,29.90,North,0,0.0,1.3,69,0.00,,,0.00,WUHU216HW,2013-03-16 17:03:00,
2013-03-16 12:08:00,34.9,25.0,29.90,North,0,1.1,1.8,67,0.00,,,0.00,WUHU216HW,2013-03-16 17:08:00,
2013-03-16 12:13:00,35.6,25.4,29.89,NNE,23,0.0,1.8,66,0.00,,,0.00,WUHU216HW,2013-03-16 17:13:00,
2013-03-16 12:19:00,36.7,25.7,29.90,North,0,0.0,1.8,64,0.00,,,0.00,WUHU216HW,2013-03-16 17:19:00,
2013-03-16 12:23:00,38.0,26.5,29.89,North,0,0.2,0.4,63,0.00,,,0.00,WUHU216HW,2013-03-16 17:23:00,
2013-03-16 12:28:00,38.5,26.9,29.90,North,0,0.2,0.7,63,0.00,,,0.00,WUHU216HW,2013-03-16 17:28:00,
2013-03-16 12:33:00,38.5,25.8,29.90,WSW,248,0.4,3.6,60,0.00,,,0.00,WUHU216HW,2013-03-16 17:33:00,
2013-03-16 12:39:00,38.3,26.0,29.89,SW,225,0.4,3.6,61,0.00,,,0.00,WUHU216HW,2013-03-16 17:39:00,
2013-03-16 12:44:00,38.5,24.1,29.89,NW,315,0.7,2.5,56,0.00,,,0.00,WUHU216HW,2013-03-16 17:44:00,
2013-03-16 12:49:00,38.5,24.5,29.89,South,180,2.0,2.5,57,0.00,,,0.00,WUHU216HW,2013-03-16 17:49:00,
2013-03-16 12:54:00,39.2,24.8,29.89,South,180,1.3,5.4,56,0.00,,,0.00,WUHU216HW,2013-03-16 17:54:00,
2013-03-16 12:59:00,39.2,24.8,29.89,SW,225,3.4,5.4,56,0.00,,,0.00,WUHU216HW,2013-03-16 17:59:00,
2013-03-16 13:04:00,39.2,24.8,29.89,South,180,1.1,3.4,56,0.00,,,0.00,WUHU216HW,2013-03-16 18:04:00,
2013-03-16 13:09:00,39.1,22.9,29.89,NNW,338,3.8,5.8,52,0.00,,,0.00,WUHU216HW,2013-03-16 18:09:00,
2013-03-16 13:14:00,38.2,22.9,29.90,ESE,113,1.3,5.8,54,0.00,,,0.00,WUHU216HW,2013-03-16 18:14:00,
2013-03-16 13:19:00,39.1,23.7,29.90,ESE,113,3.4,5.6,54,0.00,,,0.00,WUHU216HW,2013-03-16 18:19:00,
2013-03-16 13:24:00,38.3,22.2,29.90,WNW,293,2.5,5.1,52,0.00,,,0.00,WUHU216HW,2013-03-16 18:24:00,
2013-03-16 13:29:00,38.2,22.9,29.90,North,0,1.1,5.1,54,0.00,,,0.00,WUHU216HW,2013-03-16 18:29:00,
2013-03-16 13:34:00,39.2,24.3,29.90,North,0,3.1,4.7,55,0.00,,,0.00,WUHU216HW,2013-03-16 18:34:00,
2013-03-16 13:39:00,38.9,22.7,29.90,SE,135,3.6,5.1,52,0.00,,,0.00,WUHU216HW,2013-03-16 18:39:00,
2013-03-16 13:44:00,38.0,22.3,29.90,SSW,203,2.5,5.1,53,0.00,,,0.00,WUHU216HW,2013-03-16 18:44:00,
2013-03-16 13:49:00,37.1,22.3,29.89,NW,315,2.5,4.0,55,0.00,,,0.00,WUHU216HW,2013-03-16 18:49:00,
2013-03-16 13:54:00,36.7,22.1,29.89,North,0,2.5,4.0,55,0.00,,,0.00,WUHU216HW,2013-03-16 18:54:00,
2013-03-16 13:59:00,36.4,21.7,29.89,ENE,68,2.5,4.7,55,0.00,,,0.00,WUHU216HW,2013-03-16 18:59:00,
2013-03-16 14:04:00,35.8,21.7,29.89,WNW,293,3.6,4.7,56,0.00,,,0.00,WUHU216HW,2013-03-16 19:04:00,
2013-03-16 14:09:00,35.6,21.5,29.89,South,180,3.6,5.8,56,0.00,,,0.00,WUHU216HW,2013-03-16 19:09:00,
2013-03-16 14:14:00,34.6,20.4,29.89,North,0,4.0,5.8,56,0.00,,,0.00,WUHU216HW,2013-03-16 19:14:00,
2013-03-16 14:19:00,34.6,20.9,29.89,SE,135,5.1,5.6,57,0.00,,,0.00,WUHU216HW,2013-03-16 19:19:00,
2013-03-16 14:24:00,34.6,21.2,29.89,NW,315,2.5,5.1,58,0.00,,,0.00,WUHU216HW,2013-03-16 19:24:00,
2013-03-16 14:29:00,33.8,20.5,29.89,ESE,113,3.6,4.7,58,0.00,,,0.00,WUHU216HW,2013-03-16 19:29:00,
2013-03-16 14:34:00,33.5,20.7,29.89,North,0,2.5,6.3,59,0.00,,,0.00,WUHU216HW,2013-03-16 19:34:00,
2013-03-16 14:39:00,33.7,20.4,29.89,SSW,203,3.4,6.3,58,0.00,,,0.00,WUHU216HW,2013-03-16 19:39:00,
2013-03-16 14:44:00,33.8,21.4,29.90,North,0,4.5,4.9,60,0.00,,,0.00,WUHU216HW,2013-03-16 19:44:00,
2013-03-16 14:49:00,33.8,21.0,29.90,ESE,113,7.2,7.2,59,0.00,,,0.00,WUHU216HW,2013-03-16 19:49:00,
2013-03-16 14:54:00,33.5,20.3,29.90,ESE,113,3.6,7.2,58,0.00,,,0.00,WUHU216HW,2013-03-16 19:54:00,
2013-03-16 14:59:00,33.1,20.3,29.89,NNW,338,4.7,7.2,59,0.00,,,0.00,WUHU216HW,2013-03-16 19:59:00,
2013-03-16 15:04:00,32.8,20.4,29.89,South,180,2.9,7.2,60,0.00,,,0.00,WUHU216HW,2013-03-16 20:04:00,
2013-03-16 15:09:00,32.6,20.3,29.89,NW,315,1.3,6.7,60,0.00,,,0.00,WUHU216HW,2013-03-16 20:09:00,
2013-03-16 15:14:00,32.2,20.0,29.89,SE,135,4.9,5.4,60,0.00,,,0.00,WUHU216HW,2013-03-16 20:14:00,
2013-03-16 15:19:00,31.7,20.2,29.89,WSW,248,4.0,6.3,62,0.00,,,0.00,WUHU216HW,2013-03-16 20:19:00,
2013-03-16 15:24:00,31.3,20.2,29.89,WNW,293,3.6,6.9,63,0.00,,,0.00,WUHU216HW,2013-03-16 20:24:00,
2013-03-16 15:29:00,31.3,20.2,29.89,ESE,113,3.6,6.9,63,0.00,,,0.00,WUHU216HW,2013-03-16 20:29:00,
2013-03-16 15:34:00,31.1,19.6,29.89,NE,45,2.0,5.1,62,0.00,,,0.00,WUHU216HW,2013-03-16 20:34:00,
2013-03-16 15:39:00,31.3,20.2,29.89,NW,315,4.7,6.3,63,0.00,,,0.00,WUHU216HW,2013-03-16 20:39:00,
2013-03-16 15:44:00,31.3,20.5,29.89,West,270,4.0,6.0,64,0.00,,,0.00,WUHU216HW,2013-03-16 20:44:00,
2013-03-16 15:49:00,31.0,20.2,29.89,ESE,113,6.9,6.9,64,0.00,,,0.00,WUHU216HW,2013-03-16 20:49:00,
2013-03-16 15:54:00,30.6,19.8,29.89,ESE,113,4.7,6.9,64,0.00,,,0.00,WUHU216HW,2013-03-16 20:54:00,
2013-03-16 15:59:00,30.6,19.8,29.89,East,90,2.0,6.5,64,0.00,,,0.00,WUHU216HW,2013-03-16 20:59:00,
2013-03-16 16:04:00,30.6,19.8,29.89,North,0,5.6,6.5,64,0.00,,,0.00,WUHU216HW,2013-03-16 21:04:00,
2013-03-16 16:09:00,31.1,20.3,29.89,WSW,248,5.4,6.3,64,0.00,,,0.00,WUHU216HW,2013-03-16 21:09:00,
2013-03-16 16:14:00,32.4,20.9,29.89,WSW,248,2.2,6.3,62,0.00,,,0.00,WUHU216HW,2013-03-16 21:14:00,
2013-03-16 16:19:00,32.0,20.2,29.89,North,0,4.3,7.2,61,0.00,,,0.00,WUHU216HW,2013-03-16 21:19:00,
2013-03-16 16:24:00,31.9,20.3,29.89,SE,135,3.8,7.2,62,0.00,,,0.00,WUHU216HW,2013-03-16 21:24:00,
2013-03-16 16:29:00,31.1,19.6,29.89,West,270,3.1,7.6,62,0.00,,,0.00,WUHU216HW,2013-03-16 21:29:00,
2013-03-16 16:34:00,30.8,19.3,29.89,NW,315,5.4,7.6,62,0.00,,,0.00,WUHU216HW,2013-03-16 21:34:00,
2013-03-16 16:39:00,30.1,18.5,29.89,NW,315,5.4,5.6,62,0.00,,,0.00,WUHU216HW,2013-03-16 21:39:00,
2013-03-16 16:44:00,29.7,18.6,29.89,North,0,6.3,7.6,63,0.00,,,0.00,WUHU216HW,2013-03-16 21:44:00,
2013-03-16 16:49:00,29.0,17.6,29.89,SSE,158,6.0,7.6,62,0.00,,,0.00,WUHU216HW,2013-03-16 21:49:00,
2013-03-16 16:54:00,30.6,19.1,29.89,NNW,338,3.4,7.8,62,0.00,,,0.00,WUHU216HW,2013-03-16 21:54:00,
2013-03-16 16:59:00,32.4,20.2,29.88,West,270,4.7,7.8,60,0.00,,,0.00,WUHU216HW,2013-03-16 21:59:00,
2013-03-16 17:04:00,32.4,18.8,29.88,North,0,4.7,5.8,57,0.00,,,0.00,WUHU216HW,2013-03-16 22:04:00,
2013-03-16 17:09:00,34.2,20.9,29.88,North,0,4.0,5.4,58,0.00,,,0.00,WUHU216HW,2013-03-16 22:09:00,
2013-03-16 17:14:00,37.6,21.5,29.87,SW,225,5.8,6.0,52,0.00,,,0.00,WUHU216HW,2013-03-16 22:14:00,
2013-03-16 17:19:00,38.0,21.0,29.88,SE,135,5.1,6.0,50,0.00,,,0.00,WUHU216HW,2013-03-16 22:19:00,
2013-03-16 17:24:00,37.6,20.7,29.88,North,0,4.7,6.3,50,0.00,,,0.00,WUHU216HW,2013-03-16 22:24:00,
2013-03-16 17:29:00,37.8,19.8,29.88,NE,45,6.3,6.9,48,0.00,,,0.00,WUHU216HW,2013-03-16 22:29:00,
2013-03-16 17:34:00,38.5,19.9,29.88,NE,45,7.6,7.6,47,0.00,,,0.00,WUHU216HW,2013-03-16 22:34:00,
2013-03-16 17:39:00,38.5,18.9,29.88,NW,315,8.3,8.5,45,0.00,,,0.00,WUHU216HW,2013-03-16 22:39:00,
2013-03-16 17:44:00,37.8,18.7,29.88,South,180,4.9,8.5,46,0.00,,,0.00,WUHU216HW,2013-03-16 22:44:00,
2013-03-16 17:49:00,38.2,19.6,29.87,SW,225,5.8,8.3,47,0.00,,,0.00,WUHU216HW,2013-03-16 22:49:00,
2013-03-16 17:54:00,38.9,19.7,29.87,South,180,3.8,6.0,46,0.00,,,0.00,WUHU216HW,2013-03-16 22:54:00,
2013-03-16 17:59:00,39.6,20.3,29.88,North,0,3.4,6.0,46,0.00,,,0.00,WUHU216HW,2013-03-16 22:59:00,
2013-03-16 18:04:00,39.2,19.5,29.88,SE,135,3.8,6.5,45,0.00,,,0.00,WUHU216HW,2013-03-16 23:04:00,
2013-03-16 18:09:00,36.4,16.9,29.88,SE,135,3.6,6.5,45,0.00,,,0.00,WUHU216HW,2013-03-16 23:09:00,
2013-03-16 18:14:00,35.3,17.0,29.88,SE,135,1.8,6.0,47,0.00,,,0.00,WUHU216HW,2013-03-16 23:14:00,
2013-03-16 18:19:00,35.1,17.4,29.88,North,0,3.4,4.3,48,0.00,,,0.00,WUHU216HW,2013-03-16 23:19:00,
2013-03-16 18:24:00,35.5,17.2,29.88,North,0,4.0,4.3,47,0.00,,,0.00,WUHU216HW,2013-03-16 23:24:00,
2013-03-16 18:29:00,34.9,17.6,29.88,South,180,2.2,4.7,49,0.00,,,0.00,WUHU216HW,2013-03-16 23:29:00,
2013-03-16 18:34:00,34.6,16.8,29.88,South,180,4.0,4.7,48,0.00,,,0.00,WUHU216HW,2013-03-16 23:34:00,
2013-03-16 18:39:00,34.0,16.7,29.88,West,270,2.9,4.3,49,0.00,,,0.00,WUHU216HW,2013-03-16 23:39:00,
2013-03-16 18:44:00,33.3,16.7,29.88,North,0,2.9,3.4,50,0.00,,,0.00,WUHU216HW,2013-03-16 23:44:00,
2013-03-16 18:49:00,31.7,15.6,29.89,WNW,293,4.5,4.5,51,0.00,,,0.00,WUHU216HW,2013-03-16 23:49:00,
2013-03-16 18:54:00,29.7,14.2,29.89,SW,225,1.6,4.5,52,0.00,,,0.00,WUHU216HW,2013-03-16 23:54:00,
2013-03-16 18:59:00,28.6,13.7,29.89,NE,45,2.2,4.5,53,0.00,,,0.00,WUHU216HW,2013-03-16 23:59:00,
2013-03-16 19:04:00,27.7,13.1,29.89,NW,315,2.7,3.8,54,0.00,,,0.00,WUHU216HW,2013-03-17 00:04:00,
2013-03-16 19:09:00,26.8,13.2,29.89,NW,315,1.8,3.8,56,0.00,,,0.00,WUHU216HW,2013-03-17 00:09:00,
2013-03-16 19:14:00,26.1,12.9,29.90,NW,315,3.1,3.1,57,0.00,,,0.00,WUHU216HW,2013-03-17 00:14:00,
2013-03-16 19:19:00,25.6,12.8,29.90,ESE,113,2.0,3.1,58,0.00,,,0.00,WUHU216HW,2013-03-17 00:19:00,
2013-03-16 19:24:00,25.0,12.7,29.90,SE,135,1.1,2.5,59,0.00,,,0.00,WUHU216HW,2013-03-17 00:24:00,
2013-03-16 19:29:00,24.7,12.3,29.91,NNW,338,1.8,3.1,59,0.00,,,0.00,WUHU216HW,2013-03-17 00:29:00,
2013-03-16 19:34:00,24.5,12.6,29.91,North,0,4.0,4.0,60,0.00,,,0.00,WUHU216HW,2013-03-17 00:34:00,
2013-03-16 19:39:00,24.1,12.2,29.91,North,0,1.1,4.0,60,0.00,,,0.00,WUHU216HW,2013-03-17 00:39:00,
2013-03-16 19:44:00,23.9,12.4,29.91,South,180,1.8,3.8,61,0.00,,,0.00,WUHU216HW,2013-03-17 00:44:00,
2013-03-16 19:49:00,23.6,12.1,29.92,ESE,113,0.9,3.4,61,0.00,,,0.00,WUHU216HW,2013-03-17 00:49:00,
2013-03-16 19:54:00,23.4,11.9,29.92,WNW,293,1.6,2.5,61,0.00,,,0.00,WUHU216HW,2013-03-17 00:54:00,
2013-03-16 19:59:00,23.2,11.7,29.92,NE,45,3.1,3.1,61,0.00,,,0.00,WUHU216HW,2013-03-17 00:59:00,
2013-03-16 20:04:00,22.9,12.1,29.93,ENE,68,2.9,4.3,63,0.00,,,0.00,WUHU216HW,2013-03-17 01:04:00,
2013-03-16 20:09:00,22.9,12.1,29.93,SSW,203,1.8,4.3,63,0.00,,,0.00,WUHU216HW,2013-03-17 01:09:00,
2013-03-16 20:14:00,22.7,11.9,29.93,SSW,203,2.2,3.8,63,0.00,,,0.00,WUHU216HW,2013-03-17 01:14:00,
2013-03-16 20:19:00,22.5,11.7,29.94,SSW,203,1.1,3.4,63,0.00,,,0.00,WUHU216HW,2013-03-17 01:19:00,
2013-03-16 20:24:00,22.3,11.9,29.94,South,180,2.5,3.6,64,0.00,,,0.00,WUHU216HW,2013-03-17 01:24:00,
2013-03-16 20:29:00,22.0,12.0,29.94,South,180,2.5,3.6,65,0.00,,,0.00,WUHU216HW,2013-03-17 01:29:00,
2013-03-16 20:34:00,22.0,12.0,29.94,SE,135,1.3,2.7,65,0.00,,,0.00,WUHU216HW,2013-03-17 01:34:00,
2013-03-16 20:39:00,22.0,12.0,29.95,SW,225,3.4,4.0,65,0.00,,,0.00,WUHU216HW,2013-03-17 01:39:00,
2013-03-16 20:44:00,21.8,11.8,29.95,NNW,338,2.7,4.0,65,0.00,,,0.00,WUHU216HW,2013-03-17 01:44:00,
2013-03-16 20:49:00,21.6,11.6,29.95,SSW,203,1.6,3.4,65,0.00,,,0.00,WUHU216HW,2013-03-17 01:49:00,
2013-03-16 20:54:00,21.6,11.6,29.95,WNW,293,2.9,3.4,65,0.00,,,0.00,WUHU216HW,2013-03-17 01:54:00,
2013-03-16 20:59:00,21.6,11.6,29.95,South,180,2.5,2.9,65,0.00,,,0.00,WUHU216HW,2013-03-17 01:59:00,
2013-03-16 21:04:00,21.4,11.4,29.95,ENE,68,0.7,2.5,65,0.00,,,0.00,WUHU216HW,2013-03-17 02:04:00,
2013-03-16 21:09:00,21.2,11.3,29.95,South,180,1.3,2.5,65,0.00,,,0.00,WUHU216HW,2013-03-17 02:09:00,
2013-03-16 21:14:00,21.1,11.1,29.96,ESE,113,1.6,2.0,65,0.00,,,0.00,WUHU216HW,2013-03-17 02:14:00,
2013-03-16 21:19:00,21.2,11.6,29.96,North,0,1.1,2.9,66,0.00,,,0.00,WUHU216HW,2013-03-17 02:19:00,
2013-03-16 21:24:00,21.1,11.4,29.95,North,0,1.8,2.9,66,0.00,,,0.00,WUHU216HW,2013-03-17 02:24:00,
2013-03-16 21:29:00,20.9,11.3,29.96,NNW,338,3.6,3.6,66,0.00,,,0.00,WUHU216HW,2013-03-17 02:29:00,
2013-03-16 21:34:00,20.9,10.9,29.96,North,0,1.6,3.6,65,0.00,,,0.00,WUHU216HW,2013-03-17 02:34:00,
2013-03-16 21:39:00,20.9,11.3,29.96,North,0,1.6,3.6,66,0.00,,,0.00,WUHU216HW,2013-03-17 02:39:00,
2013-03-16 21:44:00,20.9,11.3,29.96,WNW,293,1.6,2.9,66,0.00,,,0.00,WUHU216HW,2013-03-17 02:44:00,
2013-03-16 21:49:00,20.9,11.6,29.97,WSW,248,2.7,4.9,67,0.00,,,0.00,WUHU216HW,2013-03-17 02:49:00,
2013-03-16 21:54:00,20.7,11.4,29.97,SW,225,1.1,4.9,67,0.00,,,0.00,WUHU216HW,2013-03-17 02:54:00,
2013-03-16 21:59:00,20.5,11.3,29.97,West,270,0.9,2.7,67,0.00,,,0.00,WUHU216HW,2013-03-17 02:59:00,
2013-03-16 22:04:00,20.3,11.1,29.97,SE,135,0.7,2.7,67,0.00,,,0.00,WUHU216HW,2013-03-17 03:04:00,
2013-03-16 22:09:00,20.2,10.9,29.97,WSW,248,0.9,1.8,67,0.00,,,0.00,WUHU216HW,2013-03-17 03:09:00,
2013-03-16 22:14:00,19.8,10.5,29.97,WSW,248,0.4,1.1,67,0.00,,,0.00,WUHU216HW,2013-03-17 03:14:00,
2013-03-16 22:19:00,19.6,10.4,29.97,WSW,248,0.4,0.9,67,0.00,,,0.00,WUHU216HW,2013-03-17 03:19:00,
2013-03-16 22:24:00,19.4,10.2,29.96,WSW,248,0.4,0.9,67,0.00,,,0.00,WUHU216HW,2013-03-17 03:24:00,
2013-03-16 22:29:00,19.3,10.0,29.96,South,180,0.4,0.9,67,0.00,,,0.00,WUHU216HW,2013-03-17 03:29:00,
2013-03-16 22:34:00,19.1,10.2,29.97,South,180,1.1,1.1,68,0.00,,,0.00,WUHU216HW,2013-03-17 03:34:00,
2013-03-16 22:39:00,19.1,10.2,29.97,South,180,1.3,1.3,68,0.00,,,0.00,WUHU216HW,2013-03-17 03:39:00,
2013-03-16 22:44:00,19.1,10.5,29.97,ESE,113,1.8,2.2,69,0.00,,,0.00,WUHU216HW,2013-03-17 03:44:00,
2013-03-16 22:49:00,19.1,10.5,29.97,ENE,68,1.6,2.2,69,0.00,,,0.00,WUHU216HW,2013-03-17 03:49:00,
2013-03-16 22:54:00,19.3,10.6,29.97,East,90,1.1,2.0,69,0.00,,,0.00,WUHU216HW,2013-03-17 03:54:00,
2013-03-16 22:59:00,19.3,10.6,29.97,East,90,1.8,1.8,69,0.00,,,0.00,WUHU216HW,2013-03-17 03:59:00,
2013-03-16 23:00:00,19.3,10.6,29.97,North,0,1.3,1.8,69,0.00,,,0.00,WUHU216HW,2013-03-17 04:00:00,
2013-03-16 23:05:00,19.3,10.6,29.97,NNW,338,0.7,1.8,69,0.00,,,0.00,WUHU216HW,2013-03-17 04:05:00,
2013-03-16 23:10:00,19.1,10.5,29.98,SE,135,2.2,2.7,69,0.00,,,0.00,WUHU216HW,2013-03-17 04:10:00,
2013-03-16 23:15:00,19.1,10.5,29.98,NW,315,1.6,2.7,69,0.00,,,0.00,WUHU216HW,2013-03-17 04:15:00,
2013-03-16 23:20:00,19.1,10.5,29.98,NE,45,0.9,2.0,69,0.00,,,0.00,WUHU216HW,2013-03-17 04:20:00,
2013-03-16 23:25:00,19.1,10.5,29.98,SE,135,2.0,2.0,69,0.00,,,0.00,WUHU216HW,2013-03-17 04:25:00,
2013-03-16 23:30:00,19.1,10.5,29.98,South,180,1.1,2.0,69,0.00,,,0.00,WUHU216HW,2013-03-17 04:30:00,
2013-03-16 23:35:00,18.7,10.2,29.99,WNW,293,1.6,2.0,69,0.00,,,0.00,WUHU216HW,2013-03-17 04:35:00,
2013-03-16 23:40:00,18.7,10.2,29.99,North,0,1.1,2.0,69,0.00,,,0.00,WUHU216HW,2013-03-17 04:40:00,
2013-03-16 23:45:00,18.4,9.8,29.99,ESE,113,1.3,1.8,69,0.00,,,0.00,WUHU216HW,2013-03-17 04:45:00,
2013-03-16 23:50:00,18.2,9.7,29.99,South,180,1.1,1.6,69,0.00,,,0.00,WUHU216HW,2013-03-17 04:50:00,
2013-03-16 23:55:00,18.2,10.0,29.99,WNW,293,1.3,1.6,70,0.00,,,0.00,WUHU216HW,2013-03-17 04:55:00,